NINGXIA-1 10 (49022 NORAD) Tracking and Keplerian Element Data

This shows tracking and keplerian element data for the satellite.

Feedback or suggestion? Click here.




ElementValue
Catalog49022
NameNINGXIA-1 10
Epoch Orbit1009
Epoch Day262.08095375
Epoch Year2021
RAAN128.0937
Inclination45.0012
Eccentricity0.0008682
Argument of Perigee260.0203
Mean Anonmoly99.9649
Mean Motion14.09163696
Decay Rate-3.6E-07
L11 49022U 21064E 21262.08095375 -.00000036 00000-0 55111-4 0 9997
L22 49022 45.0012 128.0937 0008682 260.0203 99.9649 14.09163696 10099

Live tracking and technical data element details for NINGXIA-1 10 (NORAD 49022). NINGXIA-1 10 can be tracked NOW for your location showing map with azimuth and elevation plus other details from your city location.

Track the satellite on the map from your city or location and see movement details for azimuth, elevation, latitude, longitude, range, height, and movement on the map or in text.







IsCatalogInMostPopularTable: catalog: 49022, numindb: 14
Update: records affected: 1



GetName: 49022 NINGXIA-1 10

Hit Count: updated at: Fri, 24 Sep 2021 18:46:15 GMT